Weather History for KLWD - February, 2014

Change the Weather History Date:

Sunday, February 16, 2014

  Actual Average Record
Temperature  
Mean Temperature 26 °F 28 °F  
Max Temperature 30 °F 38 °F - ()
Min Temperature 22 °F 19 °F - ()
Degree Days  
Heating Degree Days 39 37  
Month to date heating degree days 846 615  
Since 1 July heating degree days 4827 4307  
Cooling Degree Days 0 0  
Month to date cooling degree days 0 0  
Year to date cooling degree days 0 0  
Moisture  
Dew Point 20 °F    
Average Humidity 78    
Maximum Humidity 88    
Minimum Humidity 68    
Precipitation  
Precipitation 0.00 in 0.05 in - ()
Month to date precipitation 0.81 0.76  
Sea Level Pressure  
Sea Level Pressure 30.13 in    
Wind  
Wind Speed 9 mph (ENE)    
Max Wind Speed 17 mph    
Max Gust Speed 23 mph    
Visibility 10 miles    
Events      
T = Trace of Precipitation, MM = Missing Value Source: NWS Daily Summary

Daily Weather History Graph

Daily Weather History Graph

Search for Another Location

Airport or City:

Trip Planner

Search our weather history database for the weather conditions in past years. The results will help you decide how hot, cold, wet, or windy it might be!

Date:

Astronomy

Feb. 16, 2014 Rise Set
Actual Time 7:08 AM CST 5:51 PM CST
Civil Twilight 6:40 AM CST 6:19 PM CST
Nautical Twilight 6:08 AM CST 6:51 PM CST
Astronomical Twilight 5:36 AM CST 7:23 PM CST
Moon 7:50 PM CST (2/16) 7:37 AM CST (2/16)
Length of Visible Light 11h 39m
Length of Day
10h 43m
Full, 97% of the Moon is Illuminated
Feb 16
Full
Feb 22
Last Quarter
Mar 1
New
Mar 8
First Quarter
Mar 16
Full

Hourly Weather History & Observations

Time (CST) Temp. Windchill Dew Point Humidity Pressure Visibility Wind Dir Wind Speed Gust Speed Precip Events Conditions
12:53 AM 28.9 °F 18.6 °F 24.1 °F 82% 30.10 in 10.0 mi North 12.7 mph - N/A   Overcast
1:53 AM 28.0 °F 19.3 °F 23.0 °F 81% 30.11 in 10.0 mi North 9.2 mph - N/A   Overcast
2:53 AM 27.0 °F 18.7 °F 23.0 °F 85% 30.14 in 10.0 mi NNW 8.1 mph - N/A   Overcast
3:53 AM 27.0 °F 18.0 °F 23.0 °F 85% 30.13 in 10.0 mi NNW 9.2 mph - N/A   Overcast
4:53 AM 27.0 °F 17.3 °F 21.9 °F 81% 30.14 in 10.0 mi North 10.4 mph - N/A   Overcast
5:53 AM 26.1 °F 16.8 °F 21.0 °F 81% 30.14 in 10.0 mi NNE 9.2 mph - N/A   Overcast
6:48 AM 24.8 °F 14.6 °F 21.2 °F 86% 30.12 in 10.0 mi North 10.4 mph - N/A   Overcast
6:53 AM 25.0 °F 15.5 °F 21.0 °F 85% 30.17 in 10.0 mi NNE 9.2 mph - N/A   Overcast
7:53 AM 24.1 °F 13.1 °F 19.9 °F 84% 30.20 in 9.0 mi North 11.5 mph - N/A   Overcast
8:53 AM 21.9 °F 12.5 °F 18.0 °F 85% 30.21 in 10.0 mi NNE 8.1 mph - N/A   Overcast
9:53 AM 21.9 °F 12.5 °F 17.1 °F 82% 30.23 in 10.0 mi ENE 8.1 mph - N/A   Overcast
10:53 AM 23.0 °F 15.8 °F 17.1 °F 78% 30.25 in 10.0 mi NNE 5.8 mph - N/A   Overcast
11:53 AM 24.1 °F 17.0 °F 18.0 °F 77% 30.22 in 10.0 mi ESE 5.8 mph - N/A   Overcast
12:50 PM 24.8 °F 14.6 °F 17.6 °F 74% 30.13 in 10.0 mi East 10.4 mph - N/A   Overcast
12:53 PM 25.0 °F 15.5 °F 17.1 °F 72% 30.17 in 10.0 mi East 9.2 mph - N/A   Overcast
1:53 PM 26.1 °F 16.8 °F 18.0 °F 71% 30.18 in 10.0 mi SE 9.2 mph - N/A   Partly Cloudy
2:53 PM 27.0 °F 16.7 °F 18.0 °F 69% 30.15 in 10.0 mi ESE 11.5 mph - N/A   Clear
3:53 PM 27.0 °F 17.3 °F 18.0 °F 69% 30.12 in 10.0 mi ESE 10.4 mph - N/A   Clear
4:53 PM 27.0 °F 18.7 °F 19.0 °F 72% 30.10 in 10.0 mi SE 8.1 mph - N/A   Clear
5:53 PM 27.0 °F 19.5 °F 19.9 °F 75% 30.09 in 10.0 mi ESE 6.9 mph - N/A   Clear
6:53 PM 26.1 °F 16.8 °F 19.9 °F 78% 30.09 in 10.0 mi ESE 9.2 mph - N/A   Clear
7:53 PM 25.0 °F 16.3 °F 19.0 °F 78% 30.07 in 10.0 mi ESE 8.1 mph - N/A   Clear
8:53 PM 25.0 °F 15.5 °F 19.0 °F 78% 30.05 in 10.0 mi ESE 9.2 mph 18.4 mph N/A   Clear
9:53 PM 26.1 °F 16.8 °F 19.9 °F 78% 30.06 in 10.0 mi SE 9.2 mph 18.4 mph N/A   Mostly Cloudy
10:53 PM 26.1 °F 16.8 °F 19.9 °F 78% 30.02 in 10.0 mi ESE 9.2 mph - N/A   Partly Cloudy
11:53 PM 25.0 °F 15.5 °F 19.9 °F 81% 29.98 in 9.0 mi ESE 9.2 mph - N/A   Clear